Satellite: NOAA-14 Catalog number: 23455 Epoch time: 09327.76235000 Element set: 0839 Inclination: 098.8966 deg RA of node: 044.7776 deg Eccentricity: 0.0010218 Arg of perigee: 099.0751 deg Mean anomaly: 261.1576 deg Mean motion: 14.13774942 rev/day Decay rate: 2.31e-06 rev/day^2 Epoch rev: 76847 Checksum: 330
Satellite: NOAA-15 Catalog number: 25338 Epoch time: 09327.60658090 Element set: 0166 Inclination: 098.6001 deg RA of node: 313.4468 deg Eccentricity: 0.0009966 Arg of perigee: 317.2077 deg Mean anomaly: 042.8307 deg Mean motion: 14.24793193 rev/day Decay rate: -1.06e-06 rev/day^2 Epoch rev: 59947 Checksum: 324
Satellite: RESURS Catalog number: 25394 Epoch time: 09328.62401315 Element set: 365 Inclination: 098.3218 deg RA of node: 352.6857 deg Eccentricity: 0.0002296 Arg of perigee: 090.7643 deg Mean anomaly: 269.3803 deg Mean motion: 14.24190928 rev/day Decay rate: -1.1e-07 rev/day^2 Epoch rev: 59123 Checksum: 300
Satellite: FENGYUN1 Catalog number: 25730 Epoch time: 09328.81471634 Element set: 908 Inclination: 098.7708 deg RA of node: 294.2828 deg Eccentricity: 0.0022275 Arg of perigee: 116.9188 deg Mean anomaly: 243.4238 deg Mean motion: 14.08090804 rev/day Decay rate: 1.394e-05 rev/day^2 Epoch rev: 54292 Checksum: 324
Satellite: OKEAN-0 Catalog number: 25860 Epoch time: 09328.76175789 Element set: 845 Inclination: 097.8063 deg RA of node: 303.7389 deg Eccentricity: 0.0001688 Arg of perigee: 052.4575 deg Mean anomaly: 307.6786 deg Mean motion: 14.73598933 rev/day Decay rate: 4.2e-07 rev/day^2 Epoch rev: 55679 Checksum: 365
Satellite: NOAA-16 Catalog number: 26536 Epoch time: 09327.59798902 Element set: 0646 Inclination: 099.1783 deg RA of node: 335.1464 deg Eccentricity: 0.0010530 Arg of perigee: 190.1863 deg Mean anomaly: 169.9105 deg Mean motion: 14.12537440 rev/day Decay rate: -1.47e-06 rev/day^2 Epoch rev: 47280 Checksum: 321
Satellite: NOAA-17 Catalog number: 27453 Epoch time: 09327.77257928 Element set: 0639 Inclination: 098.4627 deg RA of node: 021.1723 deg Eccentricity: 0.0011933 Arg of perigee: 022.9993 deg Mean anomaly: 337.1732 deg Mean motion: 14.24109133 rev/day Decay rate: 1.01e-06 rev/day^2 Epoch rev: 38546 Checksum: 310
Satellite: NOAA-18 Catalog number: 28654 Epoch time: 09327.77771450 Element set: 0125 Inclination: 098.9263 deg RA of node: 269.9018 deg Eccentricity: 0.0013517 Arg of perigee: 273.1613 deg Mean anomaly: 086.8030 deg Mean motion: 14.11303332 rev/day Decay rate: -4.0e-07 rev/day^2 Epoch rev: 23246 Checksum: 292
Satellite: NOAA-19 Catalog number: 33591 Epoch time: 09327.79212678 Element set: 0331 Inclination: 098.7660 deg RA of node: 269.5291 deg Eccentricity: 0.0014467 Arg of perigee: 147.9660 deg Mean anomaly: 212.2400 deg Mean motion: 14.11002235 rev/day Decay rate: -1.38e-06 rev/day^2 Epoch rev: 04094 Checksum: 296
/EX SB KEPS @ AMSAT $ORB09328.M Orbital Elements 09328.MISC
HR AMSAT ORBITAL ELEMENTS FOR MANNED AND MISCELLANEOUS SATELLITES FROM WA5QGD FORT WORTH,TX November 24, 2009 Send Subscribe/unsubscribe to KEPS at http://www.amsat.org/mailman/listinfo/keps BID: ORB09328.M TO ALL RADIO AMATEURS BT
Satellite: HUBBLE Catalog number: 20580 Epoch time: 09327.91023735 Element set: 480 Inclination: 028.4678 deg RA of node: 139.8263 deg Eccentricity: 0.0003384 Arg of perigee: 179.5615 deg Mean anomaly: 180.4987 deg Mean motion: 15.00857635 rev/day Decay rate: 3.63e-06 rev/day^2 Epoch rev: 87387 Checksum: 328
Satellite: ISS Catalog number: 25544 Epoch time: 09329.02698647 Element set: 48 Inclination: 051.6439 deg RA of node: 200.4034 deg Eccentricity: 0.0007446 Arg of perigee: 015.9063 deg Mean anomaly: 137.6737 deg Mean motion: 15.75986051 rev/day Decay rate: 7.5692e-04 rev/day^2 Epoch rev: 63129 Checksum: 321
Satellite: CO-58 Catalog number: 28895 Epoch time: 09327.63356092 Element set: 0450 Inclination: 098.0374 deg RA of node: 213.5854 deg Eccentricity: 0.0017419 Arg of perigee: 206.7113 deg Mean anomaly: 153.3208 deg Mean motion: 14.59817515 rev/day Decay rate: 1.72e-06 rev/day^2 Epoch rev: 21699 Checksum: 325
Satellite: FALCON Catalog number: 30776 Epoch time: 09327.95790901 Element set: 0710 Inclination: 035.4335 deg RA of node: 209.9753 deg Eccentricity: 0.0001425 Arg of perigee: 263.4685 deg Mean anomaly: 096.5871 deg Mean motion: 15.03374739 rev/day Decay rate: 5.21e-06 rev/day^2 Epoch rev: 14915 Checksum: 311
Satellite: MAST Catalog number: 31126 Epoch time: 09327.19178775 Element set: 738 Inclination: 097.9681 deg RA of node: 014.5389 deg Eccentricity: 0.0094959 Arg of perigee: 145.7312 deg Mean anomaly: 215.0063 deg Mean motion: 14.53532377 rev/day Decay rate: 6.8e-07 rev/day^2 Epoch rev: 13813 Checksum: 323
Satellite: CAPE1 Catalog number: 31130 Epoch time: 09328.69640018 Element set: 750 Inclination: 097.9697 deg RA of node: 013.8019 deg Eccentricity: 0.0103179 Arg of perigee: 147.7488 deg Mean anomaly: 213.0070 deg Mean motion: 14.52107866 rev/day Decay rate: 2.7e-07 rev/day^2 Epoch rev: 13798 Checksum: 306
Satellite: COMPASS Catalog number: 32787 Epoch time: 09327.21053178 Element set: 0529 Inclination: 097.9242 deg RA of node: 029.5311 deg Eccentricity: 0.0014902 Arg of perigee: 233.8945 deg Mean anomaly: 126.0881 deg Mean motion: 14.81699850 rev/day Decay rate: 5.68e-06 rev/day^2 Epoch rev: 08499 Checksum: 330
Satellite: AAUSAT2 Catalog number: 32788 Epoch time: 09327.16499092 Element set: 0524 Inclination: 097.9242 deg RA of node: 029.5716 deg Eccentricity: 0.0014377 Arg of perigee: 234.2419 deg Mean anomaly: 125.7454 deg Mean motion: 14.81829056 rev/day Decay rate: 6.01e-06 rev/day^2 Epoch rev: 08499 Checksum: 330
Satellite: DO-64 Catalog number: 32789 Epoch time: 09328.73878341 Element set: 535 Inclination: 097.9282 deg RA of node: 031.4033 deg Eccentricity: 0.0014909 Arg of perigee: 227.8817 deg Mean anomaly: 132.1129 deg Mean motion: 14.81864969 rev/day Decay rate: 5.68e-06 rev/day^2 Epoch rev: 8522 Checksum: 345
Satellite: CO-66 Catalog number: 32791 Epoch time: 09327.20478607 Element set: 0520 Inclination: 097.9238 deg RA of node: 029.5552 deg Eccentricity: 0.0015151 Arg of perigee: 233.4762 deg Mean anomaly: 126.5051 deg Mean motion: 14.81514118 rev/day Decay rate: 2.17e-06 rev/day^2 Epoch rev: 08495 Checksum: 302
Satellite: RS-30 Catalog number: 32953 Epoch time: 09327.63961560 Element set: 460 Inclination: 082.4999 deg RA of node: 157.4854 deg Eccentricity: 0.0018660 Arg of perigee: 189.3344 deg Mean anomaly: 170.7391 deg Mean motion: 12.43003197 rev/day Decay rate: 1.0e-07 rev/day^2 Epoch rev: 6820 Checksum: 306
Satellite: TACSAT-3 Catalog number: 35001 Epoch time: 09327.56543958 Element set: 0169 Inclination: 040.4557 deg RA of node: 007.1160 deg Eccentricity: 0.0024622 Arg of perigee: 269.8223 deg Mean anomaly: 089.9769 deg Mean motion: 15.39624519 rev/day Decay rate: 4.633e-05 rev/day^2 Epoch rev: 02891 Checksum: 320
Satellite: PHARMSAT Catalog number: 35002 Epoch time: 09327.53821732 Element set: 0151 Inclination: 040.4695 deg RA of node: 006.2022 deg Eccentricity: 0.0027417 Arg of perigee: 273.3049 deg Mean anomaly: 086.4629 deg Mean motion: 15.40342671 rev/day Decay rate: 3.993e-05 rev/day^2 Epoch rev: 02891 Checksum: 278
Satellite: HAWKSAT1 Catalog number: 35003 Epoch time: 09327.45713555 Element set: 0162 Inclination: 040.4617 deg RA of node: 005.4273 deg Eccentricity: 0.0027178 Arg of perigee: 277.0447 deg Mean anomaly: 082.7276 deg Mean motion: 15.41448017 rev/day Decay rate: 7.539e-05 rev/day^2 Epoch rev: 02892 Checksum: 296
Satellite: CP6 Catalog number: 35004 Epoch time: 09327.51600458 Element set: 145 Inclination: 040.4626 deg RA of node: 005.0013 deg Eccentricity: 0.0026453 Arg of perigee: 277.8060 deg Mean anomaly: 081.9748 deg Mean motion: 15.41622851 rev/day Decay rate: 8.738e-05 rev/day^2 Epoch rev: 2892 Checksum: 286
Satellite: AEROCUB3 Catalog number: 35005 Epoch time: 09327.79973996 Element set: 0158 Inclination: 040.4753 deg RA of node: 003.8484 deg Eccentricity: 0.0026780 Arg of perigee: 275.9304 deg Mean anomaly: 083.8472 deg Mean motion: 15.41374417 rev/day Decay rate: 8.272e-05 rev/day^2 Epoch rev: 02896 Checksum: 334
Satellite: DRAGNSAT Catalog number: 35690 Epoch time: 09328.09687850 Element set: 117 Inclination: 051.6368 deg RA of node: 197.3385 deg Eccentricity: 0.0006133 Arg of perigee: 159.4534 deg Mean anomaly: 200.6718 deg Mean motion: 15.87895713 rev/day Decay rate: 5.8393e-04 rev/day^2 Epoch rev: 1847 Checksum: 339
Satellite: POLLUX Catalog number: 35693 Epoch time: 09327.33248859 Element set: 122 Inclination: 051.6386 deg RA of node: 202.0006 deg Eccentricity: 0.0005056 Arg of perigee: 123.1813 deg Mean anomaly: 236.9782 deg Mean motion: 15.86600595 rev/day Decay rate: 5.0356e-04 rev/day^2 Epoch rev: 1831 Checksum: 289
Satellite: CASTOR Catalog number: 35694 Epoch time: 09328.12493400 Element set: 111 Inclination: 051.6398 deg RA of node: 199.0805 deg Eccentricity: 0.0005072 Arg of perigee: 117.7435 deg Mean anomaly: 242.4115 deg Mean motion: 15.83321225 rev/day Decay rate: 2.3561e-04 rev/day^2 Epoch rev: 1842 Checksum: 271
Satellite: METEOR-M Catalog number: 35865 Epoch time: 09328.49334562 Element set: 62 Inclination: 098.7894 deg RA of node: 018.4477 deg Eccentricity: 0.0001906 Arg of perigee: 216.1521 deg Mean anomaly: 143.9505 deg Mean motion: 14.21827542 rev/day Decay rate: 1.76e-06 rev/day^2 Epoch rev: 963 Checksum: 308
/EX